Погода в Хадерслеве

Дания     55°15′27″N   9°28′36″E
темп.,
°C
ветер,
м/с
пор.,
м/с
влажн.,
%
обл.,
%
осадки,
мм/ч
давл.,
гПа
погр.,
м
19 апреля, пн
пн1923:00+7св36725 0.0 102499
02:00+8всв377472 0.0 1024145
05:00+8всв3573100 0.0 1024113
08:00+8всв3771100 0.0 1024192
11:00+12всв465159 0.0 1023541
14:00+15всв45435 0.0 1023845
17:00+14св34491 0.0 1022569
20:00+10всв22680 0.0 102234
20 апреля, вт
вт2023:00+8всв23694 0.0 102226
02:00+7в22710 0.0 102218
05:00+5в22650 0.0 102117
08:00+7всв23610 0.0 102093
11:00+12всв22440 0.0 1020538
14:00+14св33390 0.0 10181200
17:00+15всв22391 0.0 10171041
20:00+11зсз47665 0.0 1016195
21 апреля, ср
ср2123:00+7сз35775 0.0 101688
02:00+6зсз3681100 0.0 1015101
05:00+5з498799 0.0 1014211
08:00+6сз61077100 0.0 1014912
11:00+8зсз8114912 0.0 10131736
14:00+9зсз10134889 0.1 10122247
17:00+8зсз1116515 0.4 10122079
20:00+5зсз1119625 0.4 10111603
22 апреля, чт
чт2223:00+4зсз11196478 0.0 10101478
02:00+4сз11176792 0.0 10091493
05:00+4сз10167389 0.0 1009872
08:00+5сз7127361 0.0 1009811
11:00+9ссз91442100 0.0 10092249
14:00+8ссз9145285 0.0 10121826
17:00+9ссз9144865 0.0 10141808
20:00+7сз712490 0.0 1016605
23 апреля, пт
пт2323:00+3зсз511760 0.0 1018230
02:00+2зсз510940 0.0 1019180
05:00+1зсз37951 0.0 1019128
08:00+4сз34870 0.0 1020196
11:00+9сз46535 0.0 10211190
14:00+11сз9124767 0.0 10201885
17:00+9сз9136279 0.1 10211855
20:00+7сз812709 0.1 10211094